Location: Columbia
(38.9520°N, 92.3340°W)
Time: 23:35:15
(UTC-05:00)

SL-08 RB Rocket - Visible Passes

Search period start: 02 September 2014 00:00
Search period end: 12 September 2014 00:00
Orbit: 651 x 688 km, 98.1° (Epoch: 02 September)

Date Brightness Start Highest point End Pass type
(mag) Time Alt. Az. Time Alt. Az. Time Alt. Az.
02 Sep 5.9 21:22:43 11° NE 21:22:43 11° NE 21:23:30 10° NE visible
02 Sep 5.8 23:00:55 24° NNW 23:00:55 24° NNW 23:02:47 10° NNW visible
03 Sep 5.6 21:55:44 20° NNE 21:55:44 20° NNE 21:57:40 10° NNE visible
03 Sep 6.5 23:33:57 15° NW 23:33:57 15° NW 23:34:52 10° NW visible
04 Sep 5.5 22:28:46 25° N 22:28:46 25° N 22:30:46 10° N visible
05 Sep 6.0 21:23:36 11° NE 21:23:36 11° NE 21:24:09 10° NE visible
05 Sep 6.0 23:01:48 21° NNW 23:01:48 21° NNW 23:03:21 10° NNW visible
06 Sep 5.7 21:56:38 18° NNE 21:56:38 18° NNE 21:58:15 10° NNE visible
06 Sep 6.7 23:34:50 13° NW 23:34:50 13° NW 23:35:26 10° NW visible
07 Sep 5.8 22:29:40 22° N 22:29:40 22° N 22:31:20 10° N visible
08 Sep 6.1 21:24:30 11° NE 21:24:30 11° NE 21:24:46 10° NE visible
08 Sep 6.2 23:02:42 18° NNW 23:02:42 18° NNW 23:03:55 10° NNW visible
09 Sep 5.9 21:57:31 17° NNE 21:57:31 17° NNE 21:58:50 10° NNE visible
09 Sep 6.8 23:35:44 11° NW 23:35:44 11° NW 23:35:59 10° NW visible
10 Sep 6.0 22:30:33 19° N 22:30:33 19° N 22:31:54 10° N visible
11 Sep 6.2 21:25:23 10° NE 21:25:23 10° NE 21:25:23 10° NE visible
11 Sep 6.4 23:03:35 16° NNW 23:03:35 16° NNW 23:04:28 10° NNW visible
